NOZ27GE EDDH-ENGM

Flight info

Callsign NOZ27GE
Flight time 1h 11m
Altitude 35000
Route SOKWO1C SOKWO T814 EXNEL M105 AMRAK DCT NERDO/N0437F360 DCT PIPEX/N0438F370 M609 RIPAM
Aircraft B738/M-SDE2E3FGHIRWXY/LB1

Departure

Time 2026-05-08 05:41
Airport Hamburg Helmut Schmidt Airport (EDDH)

Arrival

Time 2026-05-08 06:53
Airport Oslo-Gardermoen International Airport (ENGM)
Time Latitude Longitude Altitude Speed Heading
2026-05-08 05:23 53.63112 10.00376 47 ft 0 kts 87°
2026-05-08 05:36 53.63112 10.00370 44 ft 3 kts 87°
2026-05-08 05:36 53.63110 10.00325 43 ft 4 kts 87°
2026-05-08 05:36 53.63109 10.00280 43 ft 4 kts 87°
2026-05-08 05:36 53.63109 10.00244 43 ft 4 kts 97°
2026-05-08 05:37 53.63116 10.00204 46 ft 4 kts 136°
2026-05-08 05:37 53.63131 10.00189 47 ft 0 kts 175°
2026-05-08 05:39 53.63128 10.00190 47 ft 2 kts 175°
2026-05-08 05:39 53.63076 10.00187 47 ft 12 kts 197°
2026-05-08 05:39 53.62989 10.00100 46 ft 15 kts 214°
2026-05-08 05:39 53.62935 10.00029 47 ft 15 kts 228°
2026-05-08 05:40 53.62887 9.99882 45 ft 14 kts 243°
2026-05-08 05:40 53.62866 9.99746 44 ft 11 kts 302°
2026-05-08 05:40 53.62967 9.99655 43 ft 36 kts 335°
2026-05-08 05:40 53.63376 9.99305 46 ft 94 kts 332°
2026-05-08 05:41 53.64113 9.98669 50 ft 141 kts 333°
2026-05-08 05:41 53.65092 9.97790 121 ft 172 kts 332°
2026-05-08 05:41 53.66155 9.96803 531 ft 181 kts 332°
2026-05-08 05:41 53.67263 9.95749 1041 ft 185 kts 332°
2026-05-08 05:42 53.68482 9.94724 1274 ft 206 kts 346°
2026-05-08 05:42 53.69911 9.94569 1596 ft 210 kts
2026-05-08 05:42 53.71385 9.94647 2058 ft 214 kts
2026-05-08 05:42 53.72873 9.94678 2584 ft 213 kts
2026-05-08 05:43 53.74262 9.95412 2895 ft 214 kts 37°
2026-05-08 05:43 53.75524 9.96855 3216 ft 223 kts 37°
2026-05-08 05:43 53.76836 9.98309 3619 ft 230 kts 37°
2026-05-08 05:43 53.78231 9.99848 3931 ft 245 kts 37°
2026-05-08 05:44 53.79676 10.01433 4499 ft 249 kts 36°
2026-05-08 05:44 53.81138 10.03035 5123 ft 252 kts 36°
2026-05-08 05:44 53.82626 10.04656 5688 ft 256 kts 33°
2026-05-08 05:44 53.84350 10.05559 6197 ft 269 kts
2026-05-08 05:45 53.86163 10.04711 6826 ft 274 kts 338°
2026-05-08 05:45 53.87927 10.03436 7423 ft 277 kts 339°
2026-05-08 05:45 53.89713 10.02166 8017 ft 280 kts 339°
2026-05-08 05:45 53.91523 10.00889 8665 ft 282 kts 338°
2026-05-08 05:46 53.93343 9.99612 9314 ft 285 kts 339°
2026-05-08 05:46 53.95189 9.98324 9941 ft 288 kts 338°
2026-05-08 05:46 53.97056 9.97027 10507 ft 294 kts 338°
2026-05-08 05:46 53.99018 9.95665 10656 ft 315 kts 338°
2026-05-08 05:47 54.01110 9.94215 10828 ft 334 kts 338°
2026-05-08 05:47 54.03296 9.92699 11238 ft 343 kts 338°
2026-05-08 05:47 54.05515 9.91161 11829 ft 346 kts 338°
2026-05-08 05:47 54.07753 9.89607 12480 ft 348 kts 338°
2026-05-08 05:48 54.10010 9.88039 13130 ft 352 kts 338°
2026-05-08 05:48 54.12257 9.86477 13754 ft 356 kts 338°
2026-05-08 05:48 54.14560 9.84873 14329 ft 360 kts 338°
2026-05-08 05:48 54.16886 9.83252 14947 ft 362 kts 337°
2026-05-08 05:49 54.19225 9.81621 15577 ft 365 kts 337°
2026-05-08 05:49 54.21582 9.79974 16216 ft 367 kts 337°
2026-05-08 05:49 54.23941 9.78277 16836 ft 369 kts 334°
2026-05-08 05:49 54.26154 9.76011 17428 ft 372 kts 323°
2026-05-08 05:50 54.28229 9.73345 18043 ft 375 kts 322°
2026-05-08 05:50 54.30316 9.70642 18608 ft 378 kts 322°
2026-05-08 05:50 54.32435 9.67944 19124 ft 381 kts 323°
2026-05-08 05:50 54.34578 9.65249 19648 ft 384 kts 324°
2026-05-08 05:51 54.36942 9.63109 20119 ft 389 kts 342°
2026-05-08 05:51 54.39622 9.62409 20628 ft 393 kts
2026-05-08 05:51 54.42336 9.63068 21146 ft 396 kts 11°
2026-05-08 05:51 54.45062 9.63797 21600 ft 399 kts
2026-05-08 05:52 54.47845 9.63648 22064 ft 402 kts 355°
2026-05-08 05:52 54.50644 9.63276 22537 ft 405 kts 355°
2026-05-08 05:52 54.53458 9.62879 22996 ft 408 kts 355°
2026-05-08 05:52 54.56295 9.62483 23453 ft 411 kts 355°
2026-05-08 05:53 54.59153 9.62097 23883 ft 413 kts 355°
2026-05-08 05:53 54.62033 9.61722 24253 ft 416 kts 355°
2026-05-08 05:53 54.64925 9.61356 24640 ft 418 kts 356°
2026-05-08 05:53 54.67834 9.60995 24999 ft 421 kts 356°
2026-05-08 05:54 54.70765 9.60635 25358 ft 423 kts 356°
2026-05-08 05:54 54.73712 9.60275 25708 ft 426 kts 356°
2026-05-08 05:54 54.76679 9.59912 26054 ft 428 kts 356°
2026-05-08 05:54 54.79658 9.59548 26401 ft 431 kts 356°
2026-05-08 05:55 54.82618 9.59185 26729 ft 433 kts 356°
2026-05-08 05:55 54.85632 9.58815 27077 ft 435 kts 356°
2026-05-08 05:55 54.88660 9.58442 27402 ft 437 kts 356°
2026-05-08 05:55 54.91744 9.58062 27717 ft 440 kts 357°
2026-05-08 05:56 54.94807 9.57684 28012 ft 443 kts 357°
2026-05-08 05:56 54.97888 9.57303 28322 ft 445 kts 357°
2026-05-08 05:56 55.00985 9.56920 28632 ft 447 kts 357°
2026-05-08 05:56 55.04094 9.56534 28923 ft 449 kts 357°
2026-05-08 05:57 55.07217 9.56146 29206 ft 451 kts 357°
2026-05-08 05:57 55.10356 9.55755 29482 ft 454 kts 357°
2026-05-08 05:57 55.13516 9.55361 29758 ft 456 kts 357°
2026-05-08 05:57 55.16682 9.54966 30022 ft 458 kts 357°
2026-05-08 05:58 55.19870 9.54567 30277 ft 460 kts 357°
2026-05-08 05:58 55.23065 9.54167 30494 ft 461 kts 357°
2026-05-08 05:58 55.26271 9.53765 30727 ft 463 kts 357°
2026-05-08 05:58 55.29488 9.53360 31013 ft 462 kts 357°
2026-05-08 05:59 55.32690 9.52956 31341 ft 461 kts 357°
2026-05-08 05:59 55.35885 9.52552 31644 ft 460 kts 357°
2026-05-08 05:59 55.39080 9.52149 31915 ft 460 kts 357°
2026-05-08 05:59 55.42273 9.51745 32175 ft 460 kts 357°
2026-05-08 06:00 55.45471 9.51340 32459 ft 460 kts 357°
2026-05-08 06:00 55.48618 9.50940 32716 ft 460 kts 357°
2026-05-08 06:00 55.51851 9.50529 32991 ft 460 kts 357°
2026-05-08 06:00 55.54996 9.50129 33252 ft 460 kts 357°
2026-05-08 06:01 55.58238 9.49716 33409 ft 462 kts 357°
2026-05-08 06:01 55.61400 9.49312 33635 ft 462 kts 358°
2026-05-08 06:01 55.64602 9.48903 33939 ft 461 kts 358°
2026-05-08 06:01 55.67800 9.48492 34226 ft 460 kts 358°
2026-05-08 06:02 55.70987 9.48083 34417 ft 460 kts 357°
2026-05-08 06:02 55.74183 9.47671 34575 ft 461 kts 357°
2026-05-08 06:02 55.77385 9.47259 34765 ft 461 kts 357°
2026-05-08 06:02 55.80586 9.46845 34985 ft 460 kts 357°
2026-05-08 06:03 55.83778 9.46432 35178 ft 460 kts 357°
2026-05-08 06:03 55.86968 9.46019 35348 ft 460 kts 357°
2026-05-08 06:03 55.90167 9.45604 35521 ft 461 kts 356°
2026-05-08 06:03 55.93362 9.45190 35705 ft 460 kts 356°
2026-05-08 06:04 55.96557 9.44774 35884 ft 460 kts 356°
2026-05-08 06:04 55.99758 9.44357 36031 ft 461 kts 356°
2026-05-08 06:04 56.02955 9.43940 36193 ft 461 kts 356°
2026-05-08 06:04 56.06154 9.43522 36376 ft 460 kts 356°
2026-05-08 06:05 56.09343 9.43104 36542 ft 460 kts 356°
2026-05-08 06:05 56.12541 9.42685 36676 ft 461 kts 356°
2026-05-08 06:05 56.15736 9.42265 36831 ft 461 kts 356°
2026-05-08 06:05 56.18934 9.41844 36995 ft 460 kts 356°
2026-05-08 06:06 56.22130 9.41423 37153 ft 460 kts 355°
2026-05-08 06:06 56.28536 9.40576 37213 ft 463 kts 355°
2026-05-08 06:07 56.34953 9.39725 37212 ft 461 kts 355°
2026-05-08 06:07 56.41334 9.38877 37219 ft 459 kts 355°
2026-05-08 06:08 56.47648 9.38034 37224 ft 457 kts 355°
2026-05-08 06:08 56.53985 9.37185 37222 ft 456 kts 355°
2026-05-08 06:09 56.60352 9.36330 37224 ft 455 kts 355°
2026-05-08 06:09 56.66626 9.35484 37223 ft 455 kts 355°
2026-05-08 06:10 56.72945 9.34629 37237 ft 456 kts 355°
2026-05-08 06:10 56.79288 9.33768 37229 ft 458 kts 355°
2026-05-08 06:11 56.85651 9.32901 37233 ft 459 kts 355°
2026-05-08 06:11 56.92023 9.32030 37231 ft 461 kts 355°
2026-05-08 06:12 56.98435 9.31151 37225 ft 463 kts 355°
2026-05-08 06:12 57.04862 9.30266 37236 ft 464 kts 355°
2026-05-08 06:13 57.11307 9.29376 37226 ft 465 kts 355°
2026-05-08 06:13 57.17766 9.28481 37227 ft 465 kts 355°
2026-05-08 06:14 57.24212 9.27585 37226 ft 465 kts 355°
2026-05-08 06:14 57.30655 9.26686 37231 ft 464 kts 355°
2026-05-08 06:15 57.37079 9.25787 37227 ft 463 kts 355°
2026-05-08 06:15 57.43495 9.24885 37234 ft 462 kts 355°
2026-05-08 06:16 57.49897 9.23982 37230 ft 460 kts 355°
2026-05-08 06:16 57.56281 9.23078 37230 ft 461 kts 355°
2026-05-08 06:17 57.65870 9.21715 37225 ft 461 kts 354°
2026-05-08 06:17 57.72258 9.20803 37228 ft 460 kts 354°
2026-05-08 06:18 57.78645 9.19888 37230 ft 460 kts 354°
2026-05-08 06:18 57.85028 9.18970 37230 ft 460 kts 354°
2026-05-08 06:19 57.91366 9.18056 37232 ft 460 kts 354°
2026-05-08 06:19 57.97742 9.17132 37226 ft 460 kts 354°
2026-05-08 06:20 58.04126 9.16204 37233 ft 460 kts 354°
2026-05-08 06:20 58.10501 9.15274 37231 ft 460 kts 354°
2026-05-08 06:21 58.16888 9.14340 37240 ft 460 kts 354°
2026-05-08 06:21 58.23273 9.13401 37232 ft 461 kts 354°
2026-05-08 06:22 58.29656 9.12471 37230 ft 461 kts 355°
2026-05-08 06:22 58.32867 9.12656 37226 ft 463 kts
2026-05-08 06:22 58.36022 9.13899 37173 ft 465 kts 15°
2026-05-08 06:23 58.39124 9.15692 36811 ft 466 kts 17°
2026-05-08 06:23 58.42198 9.17577 36452 ft 461 kts 18°
2026-05-08 06:23 58.45232 9.19461 36055 ft 456 kts 18°
2026-05-08 06:23 58.48240 9.21316 35662 ft 453 kts 18°
2026-05-08 06:24 58.51232 9.23137 35259 ft 449 kts 17°
2026-05-08 06:24 58.54198 9.24922 34876 ft 446 kts 17°
2026-05-08 06:24 58.57154 9.26688 34485 ft 443 kts 17°
2026-05-08 06:24 58.60073 9.28427 34080 ft 440 kts 18°
2026-05-08 06:25 58.62993 9.30165 33632 ft 438 kts 18°
2026-05-08 06:25 58.65891 9.31893 33224 ft 434 kts 17°
2026-05-08 06:25 58.68763 9.33608 32832 ft 431 kts 17°
2026-05-08 06:25 58.71609 9.35311 32460 ft 427 kts 17°
2026-05-08 06:26 58.74437 9.37008 32081 ft 424 kts 17°
2026-05-08 06:26 58.77241 9.38692 31699 ft 421 kts 17°
2026-05-08 06:26 58.80025 9.40369 31345 ft 418 kts 17°
2026-05-08 06:26 58.81855 9.41471 31104 ft 416 kts 17°
2026-05-08 06:27 58.84607 9.43133 30744 ft 413 kts 17°
2026-05-08 06:27 58.87335 9.44783 30386 ft 410 kts 17°
2026-05-08 06:27 58.90051 9.46428 29983 ft 408 kts 17°
2026-05-08 06:27 58.92748 9.48064 29584 ft 404 kts 17°
2026-05-08 06:28 58.95420 9.49688 29211 ft 400 kts 17°
2026-05-08 06:28 58.98058 9.51294 28847 ft 396 kts 16°
2026-05-08 06:28 59.00685 9.52896 28451 ft 394 kts 16°
2026-05-08 06:28 59.03285 9.54483 28084 ft 390 kts 16°
2026-05-08 06:29 59.05861 9.56059 27718 ft 388 kts 16°
2026-05-08 06:29 59.08424 9.57629 27354 ft 385 kts 16°
2026-05-08 06:29 59.10966 9.59188 26989 ft 382 kts 16°
2026-05-08 06:29 59.13501 9.60745 26627 ft 380 kts 16°
2026-05-08 06:30 59.16008 9.62288 26274 ft 377 kts 16°
2026-05-08 06:30 59.18507 9.63828 25922 ft 375 kts 16°
2026-05-08 06:30 59.20974 9.65351 25572 ft 373 kts 16°
2026-05-08 06:30 59.23400 9.67210 25043 ft 377 kts 27°
2026-05-08 06:31 59.25685 9.69686 24687 ft 376 kts 29°
2026-05-08 06:31 59.27957 9.72241 24305 ft 376 kts 29°
2026-05-08 06:31 59.30214 9.74794 23952 ft 375 kts 29°
2026-05-08 06:31 59.32471 9.77340 23532 ft 374 kts 29°
2026-05-08 06:32 59.34721 9.79863 23128 ft 372 kts 29°
2026-05-08 06:32 59.36960 9.82362 22758 ft 369 kts 29°
2026-05-08 06:32 59.39183 9.84838 22411 ft 366 kts 29°
2026-05-08 06:32 59.41389 9.87291 22051 ft 363 kts 29°
2026-05-08 06:33 59.43581 9.89729 21703 ft 361 kts 29°
2026-05-08 06:33 59.45752 9.92145 21356 ft 358 kts 29°
2026-05-08 06:33 59.47916 9.94555 21008 ft 356 kts 29°
2026-05-08 06:33 59.50059 9.96945 20668 ft 353 kts 29°
2026-05-08 06:34 59.52192 9.99328 20329 ft 352 kts 28°
2026-05-08 06:34 59.54316 10.01704 19989 ft 350 kts 28°
2026-05-08 06:34 59.56427 10.04070 19653 ft 348 kts 28°
2026-05-08 06:34 59.58529 10.06427 19321 ft 346 kts 28°
2026-05-08 06:35 59.60620 10.08777 18996 ft 345 kts 28°
2026-05-08 06:35 59.62702 10.11119 18651 ft 344 kts 28°
2026-05-08 06:35 59.64771 10.13451 18302 ft 342 kts 29°
2026-05-08 06:35 59.66812 10.15754 17934 ft 341 kts 29°
2026-05-08 06:36 59.68891 10.18103 17581 ft 339 kts 29°
2026-05-08 06:36 59.70902 10.20378 17247 ft 337 kts 29°
2026-05-08 06:36 59.72957 10.22708 16910 ft 334 kts 29°
2026-05-08 06:36 59.74968 10.24989 16581 ft 332 kts 29°
2026-05-08 06:37 59.76971 10.27266 16265 ft 331 kts 29°
2026-05-08 06:37 59.78959 10.29529 15948 ft 329 kts 29°
2026-05-08 06:37 59.80944 10.31790 15612 ft 328 kts 29°
2026-05-08 06:37 59.82919 10.34044 15300 ft 326 kts 29°
2026-05-08 06:38 59.84884 10.36289 14976 ft 325 kts 29°
2026-05-08 06:38 59.86844 10.38532 14657 ft 324 kts 29°
2026-05-08 06:38 59.88797 10.40771 14338 ft 323 kts 29°
2026-05-08 06:38 59.90740 10.43001 14022 ft 322 kts 29°
2026-05-08 06:39 59.92678 10.45228 13663 ft 321 kts 29°
2026-05-08 06:39 59.94606 10.47444 13332 ft 319 kts 30°
2026-05-08 06:39 59.96527 10.49657 13001 ft 318 kts 30°
2026-05-08 06:39 59.98434 10.51857 12680 ft 316 kts 30°
2026-05-08 06:40 60.00307 10.54020 12366 ft 314 kts 30°
2026-05-08 06:40 60.02194 10.56204 12052 ft 313 kts 30°
2026-05-08 06:40 60.04074 10.58381 11756 ft 311 kts 30°
2026-05-08 06:40 60.05942 10.60547 11448 ft 310 kts 30°
2026-05-08 06:41 60.07807 10.62713 11130 ft 309 kts 30°
2026-05-08 06:41 60.09665 10.64874 10824 ft 308 kts 30°
2026-05-08 06:41 60.11513 10.67026 10518 ft 307 kts 30°
2026-05-08 06:41 60.13346 10.69164 10348 ft 301 kts 30°
2026-05-08 06:42 60.15140 10.71258 10172 ft 298 kts 30°
2026-05-08 06:42 60.16945 10.73367 9855 ft 301 kts 30°
2026-05-08 06:42 60.18754 10.75485 9563 ft 301 kts 30°
2026-05-08 06:42 60.20556 10.77597 9267 ft 300 kts 31°
2026-05-08 06:43 60.22351 10.79704 8968 ft 298 kts 30°
2026-05-08 06:43 60.24161 10.81831 8501 ft 303 kts 31°
2026-05-08 06:43 60.25966 10.83954 8194 ft 301 kts 31°
2026-05-08 06:43 60.27766 10.86076 7832 ft 301 kts 31°
2026-05-08 06:44 60.29588 10.88225 7387 ft 304 kts 31°
2026-05-08 06:44 60.31413 10.90381 7064 ft 302 kts 31°
2026-05-08 06:44 60.33209 10.92504 6754 ft 296 kts 31°
2026-05-08 06:44 60.34959 10.94575 6487 ft 287 kts 31°
2026-05-08 06:45 60.36654 10.96583 6230 ft 279 kts 31°
2026-05-08 06:45 60.38302 10.98539 6027 ft 269 kts 31°
2026-05-08 06:45 60.39881 11.00415 5821 ft 259 kts 32°
2026-05-08 06:45 60.41410 11.02234 5704 ft 253 kts 32°
2026-05-08 06:46 60.42922 11.04044 5636 ft 252 kts 34°
2026-05-08 06:46 60.44122 11.06525 5498 ft 245 kts 68°
2026-05-08 06:46 60.44475 11.09804 5360 ft 239 kts 98°
2026-05-08 06:46 60.44044 11.12972 5106 ft 229 kts 123°
2026-05-08 06:47 60.43105 11.15448 4886 ft 217 kts 138°
2026-05-08 06:47 60.42043 11.17560 4614 ft 211 kts 140°
2026-05-08 06:47 60.40916 11.19302 4364 ft 200 kts 163°
2026-05-08 06:47 60.39597 11.19309 4194 ft 188 kts 194°
2026-05-08 06:48 60.38333 11.18701 3944 ft 185 kts 193°
2026-05-08 06:48 60.37100 11.18079 3721 ft 180 kts 194°
2026-05-08 06:48 60.35919 11.17424 3570 ft 171 kts 195°
2026-05-08 06:48 60.34824 11.16796 3445 ft 160 kts 195°
2026-05-08 06:49 60.33744 11.16173 3267 ft 164 kts 195°
2026-05-08 06:49 60.32652 11.15544 3052 ft 161 kts 195°
2026-05-08 06:49 60.31610 11.14944 2821 ft 157 kts 195°
2026-05-08 06:49 60.30613 11.14373 2608 ft 143 kts 195°
2026-05-08 06:50 60.29699 11.13839 2414 ft 133 kts 195°
2026-05-08 06:50 60.28794 11.13387 2237 ft 136 kts 193°
2026-05-08 06:50 60.27894 11.12820 2030 ft 135 kts 198°
2026-05-08 06:50 60.26999 11.12279 1870 ft 135 kts 196°
2026-05-08 06:51 60.26086 11.11747 1642 ft 138 kts 195°
2026-05-08 06:51 60.25166 11.11229 1449 ft 137 kts 196°
2026-05-08 06:51 60.24245 11.10699 1245 ft 138 kts 196°
2026-05-08 06:51 60.23327 11.10163 1066 ft 138 kts 196°
2026-05-08 06:52 60.22395 11.09621 884 ft 140 kts 195°
2026-05-08 06:52 60.21455 11.09082 697 ft 142 kts 195°
2026-05-08 06:52 60.20569 11.08569 678 ft 116 kts 196°
2026-05-08 06:52 60.19930 11.08201 674 ft 75 kts 195°
2026-05-08 06:53 60.19568 11.07996 672 ft 38 kts 197°
2026-05-08 06:53 60.19352 11.07871 671 ft 22 kts 185°
2026-05-08 06:53 60.19266 11.08004 671 ft 10 kts 109°
2026-05-08 06:53 60.19254 11.08085 671 ft 5 kts 107°
2026-05-08 06:54 60.19245 11.08148 670 ft 5 kts 105°
2026-05-08 06:54 60.19236 11.08216 672 ft 7 kts 104°
2026-05-08 06:54 60.19256 11.08355 673 ft 13 kts 35°
2026-05-08 06:54 60.19341 11.08423 674 ft 15 kts 16°
2026-05-08 06:55 60.19458 11.08490 676 ft 18 kts 15°
2026-05-08 06:55 60.19578 11.08554 677 ft 18 kts 15°
2026-05-08 06:55 60.19693 11.08623 678 ft 17 kts 17°
2026-05-08 06:55 60.19802 11.08688 678 ft 13 kts 16°
2026-05-08 06:56 60.19841 11.08806 676 ft 12 kts 104°
2026-05-08 06:56 60.19818 11.08968 679 ft 12 kts 106°
2026-05-08 06:56 60.19792 11.09150 680 ft 16 kts 106°
2026-05-08 06:56 60.19760 11.09372 681 ft 16 kts 105°
2026-05-08 06:57 60.19729 11.09588 682 ft 16 kts 107°
2026-05-08 06:57 60.19697 11.09790 684 ft 13 kts 105°
2026-05-08 06:57 60.19681 11.09901 684 ft 6 kts 106°
2026-05-08 06:57 60.19674 11.09952 682 ft 3 kts 106°
2026-05-08 06:58 60.19671 11.09967 684 ft 1 kts 106°
2026-05-08 06:58 60.19671 11.09973 684 ft 0 kts 106°